STARLINK-32459, 61715

Orbit data source: Space-Track

STARLINK-32459, 61715 is a payload satellite owned by SpaceX/Seattle (US) in LEO that was launched on Wed, 30 Oct 2024 UTC via an FALCON 9 launch vehicle from the Air Force Eastern Test Range (AFETR). Payload-class satellites include a variety of spacecraft equipped with specific instruments for various scientific and technological missions. These include communications satellites like Starlink; space stations such as the ISS; scientific satellites like the Hubble; Earth observation satellites from companies like Planet Labs, Umbra, and HawkEye 360; GPS; miniature CubeSats for education and research; and military/defense satellites.

Loading next visibility...
Identifier
61715, 2024-196J
Orbit
LEO
Last TLE update
16 hours ago
Origin
Manufacturer
SpaceX/Seattle
Mission
Operational Commercial Communications
Bus & Motor
STARLINK V2M, Unknown motor
Mass
730 kg wet, ~700 kg dry
Launch date (UTC)
2024-10-30 (8 months ago)
Launch vehicle
FALCON 9
Launch site
Air Force Eastern Test Range (AFETR)
Object type
Payload
Rocket body
Debris
Shape & HBR
Box + 2 Pan, 29 m
Radar Cross Section
36.964 m², Large (>1 m²)

Expand to show TLE details & history

TLE from 16 hours ago
0 STARLINK-32459
1 61715U 24196J   25181.74113398 -.00000365  00000-0 -18970-6 0  9992
2 61715  53.1592 191.5089 0001034  87.0551 273.0568 15.30190182 38589
Epoch: 2025-06-30T17:47Z
TLE epoch observation values (Epoch: 2025-06-30T17:47:13.975Z)
Latitude
-0.00005°
Longitude
5.65404°
Altitude
476.106 km
Speed
7.629 km/s
True Right ascension
12h 46m 02s
True Declination
0° 00' 00"
Sunlit
Object was in daylight at epoch
Visualization orbit readout
Latitude
34.90071°
Longitude
151.18874°
Altitude
477.307 km
Speed
7.632 km/s
Apparent Right ascension
01h 48m 40s
Apparent Declination
-7° 25' 05"
Sunlit
Object is in daylight
Visualization observer readout
Local Sidereal Time
21:41:15
Azimuth
114.54° SE
Elevation
16.019°
Doppler factor
1
Orbital elements
Apogee altitude
476.21 km
Perigee altitude
474.792 km
Semi-major axis
6,853.638 km
Eccentricity
0.0001
Inclination
53.1592°
RAAN
191.5089°
Arg. of periapsis
87.0551°
True anomaly
Unknown
Mean anomaly
273.0568°
Eccentric anomaly
Unknown
Mean motion
3.82526 °/min
Orbital period
94.11 mins
BSTAR
-1.897e-7
Loading maneuver chart data...
Loading SW <> Apogee altitude chart data...
Loading historical data...
Loading historical data...
Loading historical data...
Loading historical data...
Loading historical data...
Loading historical data...
Loading historical data...

STARLINK-32459 Visibility forecast

Observer location: undefined°, undefined°

Span
Click to sort rows by Start time (UTC) header in descending order
Start Az.
Max El. time (UTC)
Max El. Az.
Max El.
End time (UTC)
End Az.
5 mins2025-07-02 02:53:52.888Z205.847° SW2025-07-02 02:55:52.888Z108.071° ESE39.78°2025-07-02 02:58:52.888Z57.368° ENE
4 mins2025-07-02 04:31:52.888Z294.499° NW2025-07-02 04:33:52.888Z338.781° N20.864°2025-07-02 04:35:52.888Z19.026° NNE
5 mins2025-07-02 09:28:52.888Z332.431° NNW2025-07-02 09:30:52.888Z56.25° ENE37.048°2025-07-02 09:33:52.888Z112.067° ESE
|